This demonstration page uses our WeatherBlox Daily Observations layout. Learn more.

Left ArrowRight Arrow

34.02893, -84.19858

Hourly Observations for August 7, 2022

Temp ( °F °C ) Dew Point ( °F °C ) Humidity (%) Winds ( mph kmh ) Pressure ( in mb ) Visibility ( mi km ) Precip ( " mm )
12:53 am 00:53 Clear 70 21.1 69 20.6 97 97 Calm 30.20 1023 9 14 0.00 0.00
1:53 am 01:53 Mostly Clear 71 21.7 70 21.1 96 96 N 5 7 30.19 1022 10 16 0.00 0.00
2:53 am 02:53 Clear 70 21.1 69 20.6 97 97 Calm 30.16 1021 10 16 0.00 0.00
3:53 am 03:53 undefined 70 21.1 69 20.6 97 97 Calm 30.15 1021 10 16 0.00 0.00
4:53 am 04:53 Clear 69 20.6 68 20 96 96 Calm 30.16 1022 10 16 0.00 0.00
5:53 am 05:53 Clear 69 20.6 69 20.6 100 100 Calm 30.17 1022 10 16 0.00 0.00
6:53 am 06:53 Clear 69 20.6 68 20 96 96 Calm 30.19 1023 10 16 0.00 0.00
7:19 am 07:19 Partly Cloudy 69 20.6 69 20.6 100 100 Calm 30.22 1023 8 13 0.00 0.00
7:27 am 07:27 Mostly Cloudy 70 21.1 69 20.6 97 97 Calm 30.22 1023 7 11 0.00 0.00
7:53 am 07:53 Cloudy with Mist and Fog 70 21.1 70 21.1 100 100 Calm 30.21 1023 4 6 0.00 0.00
8:08 am 08:08 Cloudy with Mist and Fog 71 21.7 70 21.1 96 96 Calm 30.24 1024 2 3 0.00 0.00
8:32 am 08:32 Cloudy with Mist and Fog 71 21.7 71 21.7 100 100 Calm 30.24 1024 4 6 0.00 0.00
8:53 am 08:53 Cloudy 72 22.2 71 21.7 97 97 Calm 30.23 1024 7 11 0.00 0.00
9:10 am 09:10 Cloudy 73 22.8 71 21.7 94 94 Calm 30.23 1024 7 11 0.00 0.00
9:53 am 09:53 Mostly Cloudy 75 23.9 71 21.7 88 88 VRB 3 6 30.23 1024 10 16 0.00 0.00
10:53 am 10:53 Mostly Cloudy 78 25.6 73 22.8 85 85 VRB 3 6 30.24 1024 10 16 0.00 0.00
11:16 am 11:16 Partly Cloudy 79 26.1 72 22.2 79 79 VRB 3 6 30.23 1024 10 16 0.00 0.00
11:53 am 11:53 Partly Cloudy 82 27.8 73 22.8 74 74 Calm 30.23 1024 10 16 0.00 0.00
12:53 pm 12:53 Sunny 83 28.3 72 22.2 70 70 Calm 30.21 1023 10 16 0.00 0.00
1:53 pm 13:53 Mostly Sunny 85 29.4 72 22.2 65 65 Calm 30.18 1022 10 16 0.00 0.00
2:53 pm 14:53 Mostly Sunny 88 31.1 72 22.2 59 59 N 5 7 30.14 1021 10 16 0.00 0.00
3:53 pm 15:53 Sunny 89 31.7 69 20.6 52 52 VRB 3 6 30.11 1020 10 16 0.00 0.00
4:53 pm 16:53 Mostly Sunny 89 31.7 69 20.6 52 52 SSE 3 6 30.09 1019 10 16 0.00 0.00
5:53 pm 17:53 Mostly Cloudy 86 30 71 21.7 61 61 ESE 3 6 30.09 1019 10 16 0.00 0.00
6:53 pm 18:53 Cloudy 86 30 72 22.2 63 63 Calm 30.09 1019 10 16 0.00 0.00
7:53 pm 19:53 Mostly Cloudy 83 28.3 74 23.3 74 74 SSW 6 9 30.11 1020 10 16 0.00 0.00
8:18 pm 20:18 Sunny with Thunderstorms 82 27.8 71 21.7 69 69 Calm 30.11 1020 10 16 0.00 0.00
8:39 pm 20:39 Mostly Clear with Nearby Thunderstorms 82 27.8 70 21.1 67 67 Calm 30.12 1020 10 16 0.00 0.00
8:53 pm 20:53 Mostly Clear 79 26.1 70 21.1 74 74 Calm 30.12 1020 10 16 0.00 0.00
9:53 pm 21:53 Clear 77 25 70 21.1 79 79 SSW 3 6 30.14 1021 10 16 0.00 0.00
10:53 pm 22:53 Clear 76 24.4 70 21.1 82 82 SSW 5 7 30.15 1021 10 16 0.00 0.00
11:53 pm 23:53 Clear 75 23.9 70 21.1 84 84 SW 12 19 30.15 1021 10 16 0.00 0.00

Powered by AerisWeather